Regional Weather Roundup
Issued by NWS Northern Indiana

Home | Current Version | Previous Version | Graphics & Text | Print | Product List | Glossary On
Versions: 1 2 3 4 5 6 7 8 9 10 11 12 13 14 15 16 17 18 19 20 21 22 23 24 25 26 27 28 29 30 31 32 33 34 35 36 37 38 39 40 41 42 43 44 45 46 47 48 49 50
976
ASUS43 KIWX 261010
RWRIWX

KIWX WEATHER ROUNDUP
NATIONAL WEATHER SERVICE NORTHERN INDIANA
600 AM EDT FRI AUG 26 2016

NOTE: "FAIR" INDICATES FEW OR NO CLOUDS BELOW 12,000 FEET WITH NO
SIGNIFICANT WEATHER AND/OR OBSTRUCTIONS TO VISIBILITY.

* THESE STATIONS ARE NOT UNDER NWS QUALITY CONTROL. THEY ALSO MAY NOT
  REPORT WEATHER SUCH AS PRECIPITATION OR FOG.

INZ001>027-261100-
NORTHERN INDIANA

CITY           SKY/WX    TMP DP  RH WIND       PRES   REMARKS
GARY*          MOCLDY    66  64  94 N6        30.12R
VALPARAISO     FAIR      68  65  90 CALM      30.12R
MICHIGAN CITY*   N/A     63  63 100 MISG      30.12S FOG
LAPORTE*       FAIR     N/A N/A N/A CALM      30.12S HAZE
KNOX*            N/A     63  55  77 CALM      30.12R VSB 1/4
SOUTH BEND     FAIR      65  64  97 CALM      30.12R
GOSHEN         FOG       64  62  93 CALM      30.12R VSB 1/4
MONTICELLO*    FAIR      69  66  88 CALM      30.10S FOG
LOGANSPORT*    FOG       68  68 100 CALM      30.10F VSB 1/4
ROCHESTER*     FOG       68  68 100 CALM      30.12R VSB 3/4
WARSAW*        FOG       64  64 100 CALM      30.12S VSB 1/4
ANGOLA*        CLEAR     61  48  63 CALM      30.13R
FORT WAYNE     FOG       68  66  93 CALM      30.13R VSB 1/2
HUNTINGTON*    FOG      N/A N/A N/A CALM      30.12R VSB 1/4
PERU/GRISSOM   MOCLDY    70  70 100 NE6       30.09F FOG
MARION*        FAIR      66  66 100 CALM      30.12S FOG

$$
INZ028>050-261100-
CENTRAL INDIANA

CITY           SKY/WX    TMP DP  RH WIND       PRES   REMARKS
LAFAYETTE      MOCLDY    71  70  96 NE5       30.09S
MUNCIE*        MOCLDY    72  69  90 CALM      30.11R
INDIANAPOLIS   FAIR      75  72  90 E6        30.08S

$$
MIZ043>046-050>051-056>058-064>065-071>073-077>080-261100-
SOUTHWEST LOWER MICHIGAN

CITY           SKY/WX    TMP DP  RH WIND       PRES   REMARKS
BATTLE CREEK   FAIR      61  61 100 S5        30.12S
BENTON HARBOR  FAIR      63  60  90 CALM      30.10S
COLDWATER*     FAIR      59  59 100 CALM      30.12R FOG
HILLSDALE*     FAIR      58  56  95 CALM      30.13R FOG
HOLLAND        FAIR      63  62  97 CALM      30.10S
GRAND RAPIDS   MOCLDY    64  61  90 W3        30.10S
KALAMAZOO      FAIR      64  60  87 CALM      30.12R
STURGIS*       FOG       62  61  96 CALM      30.11S VSB 1/4
THREE RIVERS*  FAIR      63  63  99 CALM      30.12R FOG

$$
OHZ001>008-015>018-024>025-261100-
NORTHWEST OHIO

CITY           SKY/WX    TMP DP  RH WIND       PRES   REMARKS
WAUSEON*       FAIR      63  59  88 CALM      30.11R
DEFIANCE       FAIR      67  64  90 CALM      30.12R
FINDLAY        FAIR      68  63  84 CALM      30.11R
TOLEDO EXPRESS FAIR      65  63  93 NW3       30.10S
TOLEDO METCALF FAIR      67  63  87 CALM      30.11S
LIMA           FAIR      67  67 100 CALM      30.12S FOG

$$
AND FOR LAKE MICHIGAN COASTAL AND OPEN LAKE BUOY OBSERVATIONS

STATION/POSITION TEMP    WIND        PRES    VSBY  WAVE
                 AIR SEA DIR/SP/G                  HT/PER
                 (F)     (DEG/KT/KT) (MB)    (MI)  (FT/S)
CALUMET HARBOR    68      CALM  /  1 1018.8R
MICHIGAN CITY     73     310/  6/  7   N/A
BURNS HARBOR      74     360/  7/  9 1020.0R
SAINT JOSEPH      74      10/  8/  9 1019.6F
SOUTH LAKE BUOY   72 74  350/ 14/ 16 1018.5R         2/ 4
4 MI NW BRIDGMAN  74 75  360/  6/  8 1019.2R         1/ 2
MICHIGAN CITY     74 74  360/  6/  8   N/A           1/ 3

$$
&&




USA.gov is the U.S. government's official web portal to all federal, state and local government web resources and services.